Location: Park Creek Village Mobile Home Park
(38.2885°N, 122.4714°W)
Time: 08:07:47
(UTC+00:00)

CZ-2C R/B - Pass Details

Date: 14 December 2019
Orbit: 639 x 705 km, 98.4° (Epoch: 20 January)

Event Time Altitude Azimuth Distance (km) Brightness Sun altitude
Rises 14:37:11 0° 155° (SSE) 3,055 7.9 -8.1°
Reaches altitude 10° 14:39:26 10° 152° (SSE) 2,150 7.2 -7.7°
Maximum altitude 14:44:04 58° 74° (ENE) 816 4.5 -6.9°
Drops below altitude 10° 14:48:46 10° 355° (N) 2,182 6.1 -6.1°
Sets 14:51:03 0° 352° (N) 3,105 6.8 -5.7°
